CW3794 Weather Reports


Display with metric or nautical units.
time (UTC)temp
F
wind
direction
speed
MPH
gust
MPH
rain 1hr
in
rain 24hr
in
rain mn
in
humidity
%
barometer
mb
20170723064330 87 147 1.0 7.0 0.00 0.00 0.00 54 1010.9
20170723063342 87 256 0.0 0.0 0.00 0.00 0.00 50 1010.8
20170723062343 87 256 0.0 0.0 0.00 0.00 0.00 49 1010.9
20170723061335 87 264 0.0 2.0 0.00 0.00 0.00 48 1010.8
20170723060829 87 269 0.0 3.0 0.00 0.00 0.00 48 1010.8
20170723060344 87 272 0.0 3.0 0.00 0.00 0.00 48 1010.7
20170723055854 87 272 0.0 0.0 0.00 0.00 0.00 48 1010.7
20170723054837 87 272 0.0 0.0 0.00 0.00 0.00 49 1010.7
20170723054406 87 270 0.0 0.0 0.00 0.00 0.00 48 1010.7
20170723053340 87 272 0.0 3.0 0.00 0.00 0.00 48 1010.7
20170723052354 87 269 0.0 0.0 0.00 0.00 0.00 48 1010.6
20170723051834 87 269 0.0 0.0 0.00 0.00 0.00 48 1010.6
20170723050400 88 269 0.0 0.0 0.00 0.00 0.00 47 1010.5
20170723044904 88 270 0.0 0.0 0.00 0.00 0.00 47 1010.4
20170723043905 87 269 0.0 0.0 0.00 0.00 0.00 46 1010.2
20170723042845 87 269 0.0 0.0 0.00 0.00 0.00 46 1010.0
20170723042344 88 269 0.0 0.0 0.00 0.00 0.00 47 1010.0
20170723041841 87 269 0.0 0.0 0.00 0.00 0.00 47 1009.9
20170723041354 87 269 0.0 0.0 0.00 0.00 0.00 47 1009.9
20170723040827 87 269 0.0 0.0 0.00 0.00 0.00 47 1009.8
20170723040359 87 269 0.0 0.0 0.00 0.00 0.00 47 1009.7
20170723033831 88 269 0.0 0.0 0.00 0.00 0.00 47 1009.8
20170723032907 88 269 0.0 0.0 0.00 0.00 0.00 46 1009.7
20170723031841 88 269 0.0 0.0 0.00 0.00 0.00 46 1009.8
20170723031340 89 269 0.0 0.0 0.00 0.00 0.00 46 1009.7
20170723030832 89 269 0.0 0.0 0.00 0.00 0.00 45 1009.7
20170723025836 89 269 0.0 6.0 0.00 0.00 0.00 44 1009.7
20170723025354 89 269 0.0 6.0 0.00 0.00 0.00 44 1009.6
20170723024843 89 232 0.0 4.0 0.00 0.00 0.00 44 1009.6
20170723024401 89 233 2.0 4.0 0.00 0.00 0.00 44 1009.5
20170723023356 89 276 0.0 0.0 0.00 0.00 0.00 46 1009.1
20170723022841 89 276 0.0 0.0 0.00 0.00 0.00 46 1008.9
20170723021827 89 276 0.0 0.0 0.00 0.00 0.00 46 1008.6
20170723021343 89 276 0.0 0.0 0.00 0.00 0.00 46 1008.7
20170723020828 89 276 0.0 0.0 0.00 0.00 0.00 46 1008.8
20170723015833 90 276 0.0 1.0 0.00 0.00 0.00 45 1008.9
20170723015408 90 276 0.0 3.0 0.00 0.00 0.00 45 1008.9
20170723014846 90 277 1.0 5.0 0.00 0.01 0.00 45 1009.0
20170723013825 91 328 4.0 9.0 0.00 0.01 0.00 44 1008.9
20170723012906 91 309 3.0 12.0 0.00 0.02 0.00 43 1008.9
20170723011850 92 293 6.0 13.0 0.00 0.04 0.00 43 1008.9
20170723011356 93 309 5.0 14.0 0.00 0.07 0.00 42 1008.9
20170723010906 94 300 9.0 14.0 0.00 0.08 0.00 38 1009.1
20170723010401 94 288 6.0 11.0 0.00 0.14 0.00 37 1009.1
20170723005842 94 332 3.0 10.0 0.00 0.28 0.00 39 1009.0
20170723005342 94 333 4.0 10.0 0.00 0.33 0.00 39 1008.8
20170723004851 94 338 4.0 9.0 0.00 0.37 0.00 40 1008.7
20170723003911 93 310 4.0 7.0 0.00 0.37 0.00 40 1008.8
20170723003346 93 320 4.0 10.0 0.00 0.37 0.00 41 1008.9
20170723002834 93 315 4.0 9.0 0.00 0.37 0.00 41 1008.9
20170723002335 92 327 4.0 7.0 0.00 0.37 0.00 43 1009.0
20170723000329 92 330 1.0 7.0 0.00 0.37 0.00 46 1009.4
20170722235336 93 17 5.0 13.0 0.00 0.37 0.00 46 1009.1
20170722234910 93 2 5.0 14.0 0.00 0.37 0.00 44 1009.1
20170722234340 95 41 6.0 18.0 0.00 0.37 0.00 41 1009.4
20170722233845 95 21 11.0 18.0 0.00 0.37 0.00 38 1009.5
20170722232843 97 343 10.0 20.0 0.00 0.37 0.00 35 1009.4
20170722232412 98 337 9.0 20.0 0.00 0.37 0.00 34 1009.3
20170722231901 99 349 13.0 20.0 0.00 0.37 0.00 33 1009.1
20170722231358 101 4 10.0 17.0 0.00 0.37 0.00 32 1008.8
20170722230910 102 280 2.0 9.0 0.00 0.37 0.00 30 1008.3
20170722225847 102 171 3.0 6.0 0.00 0.37 0.00 31 1007.8
20170722224843 103 186 3.0 6.0 0.00 0.37 0.00 30 1007.8
20170722224332 103 180 1.0 7.0 0.00 0.37 0.00 30 1007.7
20170722223341 103 244 3.0 6.0 0.00 0.37 0.00 29 1007.9
20170722222901 103 226 3.0 7.0 0.00 0.37 0.00 30 1007.9
20170722222409 103 208 2.0 7.0 0.00 0.37 0.00 30 1008.0
20170722221853 102 173 2.0 6.0 0.00 0.37 0.00 30 1008.1
20170722220846 103 276 3.0 12.0 0.00 0.37 0.00 30 1008.2
20170722215904 102 285 1.0 8.0 0.00 0.37 0.00 31 1008.3
20170722215407 102 228 4.0 12.0 0.00 0.37 0.00 30 1008.5
20170722214359 102 279 3.0 10.0 0.00 0.37 0.00 30 1008.7
20170722213908 102 241 1.0 6.0 0.00 0.37 0.00 32 1008.7
20170722212405 102 275 3.0 6.0 0.00 0.37 0.00 32 1008.9
20170722210831 100 253 2.0 12.0 0.00 0.37 0.00 34 1009.1
20170722210401 101 230 4.0 12.0 0.00 0.37 0.00 34 1009.4
20170722204913 100 258 3.0 14.0 0.00 0.37 0.00 35 1009.7
20170722204333 100 276 6.0 14.0 0.00 0.37 0.00 34 1009.8
20170722203844 100 264 1.0 9.0 0.00 0.37 0.00 35 1009.9
20170722202405 100 263 1.0 7.0 0.00 0.37 0.00 34 1010.3
20170722200911 99 209 4.0 7.0 0.00 0.37 0.00 36 1010.5
20170722195348 98 223 1.0 9.0 0.00 0.37 0.00 35 1010.8
20170722194839 98 282 1.0 9.0 0.00 0.37 0.00 35 1010.8
20170722194403 98 259 2.0 10.0 0.00 0.37 0.00 36 1011.0
20170722193839 98 256 2.0 10.0 0.00 0.37 0.00 36 1011.1
20170722193444 98 212 1.0 7.0 0.00 0.37 0.00 37 1011.1
20170722193010 97 270 1.0 3.0 0.00 0.37 0.00 38 1011.1
20170722191340 98 298 1.0 7.0 0.00 0.37 0.00 40 1011.4
20170722190855 97 266 2.0 7.0 0.00 0.37 0.00 38 1011.7
20170722185409 96 238 0.0 3.0 0.00 0.37 0.00 41 1011.8
20170722184853 96 178 0.0 4.0 0.00 0.37 0.00 41 1012.0
20170722184409 96 165 1.0 7.0 0.00 0.37 0.00 40 1012.0
20170722183913 96 242 3.0 7.0 0.00 0.37 0.00 40 1012.1
20170722183356 96 247 1.0 4.0 0.00 0.37 0.00 42 1012.1
20170722182853 96 251 0.0 5.0 0.00 0.37 0.00 41 1012.3
20170722182414 96 260 0.0 5.0 0.00 0.37 0.00 40 1012.3
20170722181846 95 245 1.0 3.0 0.00 0.37 0.00 40 1012.3
20170722181333 95 128 0.0 3.0 0.00 0.37 0.00 42 1012.4
20170722180917 94 108 0.0 4.0 0.00 0.37 0.00 44 1012.4
20170722180341 95 122 1.0 4.0 0.00 0.37 0.00 42 1012.5
20170722175903 95 163 0.0 4.0 0.00 0.37 0.00 43 1012.5
20170722174851 95 171 0.0 2.0 0.00 0.37 0.00 44 1012.6
20170722174344 94 166 0.0 3.0 0.00 0.37 0.00 45 1012.7
20170722173401 93 112 2.0 6.0 0.00 0.37 0.00 45 1012.7
20170722172857 93 123 2.0 6.0 0.00 0.37 0.00 45 1012.8
20170722172353 93 99 1.0 4.0 0.00 0.37 0.00 45 1012.9
20170722170903 93 160 0.0 5.0 0.00 0.37 0.00 46 1012.9
20170722165902 92 127 1.0 5.0 0.00 0.37 0.00 46 1013.0
20170722164853 92 153 0.0 2.0 0.00 0.37 0.00 47 1013.0
20170722163854 91 149 1.0 7.0 0.00 0.37 0.00 50 1013.0
20170722163413 91 162 1.0 6.0 0.00 0.37 0.00 51 1013.0
20170722162915 90 143 1.0 6.0 0.00 0.37 0.00 52 1013.0
20170722162350 89 154 0.0 3.0 0.00 0.37 0.00 53 1013.0
20170722161835 89 153 0.0 3.0 0.00 0.37 0.00 54 1013.0
20170722161346 89 153 0.0 2.0 0.00 0.37 0.00 53 1013.0
20170722160912 89 153 0.0 3.0 0.00 0.37 0.00 52 1013.0
20170722160337 90 127 1.0 4.0 0.00 0.37 0.00 52 1013.0
20170722155408 90 163 0.0 5.0 0.00 0.37 0.00 52 1012.9
20170722154917 90 125 1.0 5.0 0.00 0.37 0.00 52 1012.9
20170722151838 87 157 0.0 2.0 0.00 0.37 0.00 57 1013.0
20170722151345 86 96 0.0 2.0 0.00 0.37 0.00 58 1013.0
20170722150856 86 95 0.0 1.0 0.00 0.37 0.00 58 1013.0
20170722145848 85 94 0.0 0.0 0.00 0.37 0.00 59 1012.9
20170722144836 85 94 0.0 3.0 0.00 0.37 0.00 60 1012.8
20170722144349 84 94 0.0 3.0 0.00 0.37 0.00 60 1012.6
20170722143910 84 155 0.0 1.0 0.00 0.37 0.00 61 1012.6
20170722143407 84 155 0.0 1.0 0.00 0.37 0.00 61 1012.6
20170722142859 84 131 0.0 1.0 0.00 0.37 0.00 62 1012.5
20170722142354 83 122 0.0 2.0 0.00 0.37 0.00 63 1012.5
20170722141345 83 125 0.0 4.0 0.00 0.37 0.00 63 1012.3
20170722140912 83 122 0.0 4.0 0.00 0.37 0.00 63 1012.3
20170722135840 83 96 0.0 0.0 0.00 0.37 0.00 63 1012.4
20170722135416 83 96 0.0 0.0 0.00 0.37 0.00 63 1012.4
20170722134912 83 95 0.0 1.0 0.00 0.37 0.00 63 1012.5
20170722133856 82 95 0.0 2.0 0.00 0.37 0.00 65 1012.3
20170722133357 82 90 0.0 2.0 0.00 0.37 0.00 66 1012.4
20170722132901 82 85 0.0 0.0 0.00 0.37 0.00 67 1012.4
20170722132413 81 85 0.0 0.0 0.00 0.37 0.00 67 1012.3
20170722131344 81 85 0.0 0.0 0.00 0.37 0.00 67 1012.1
20170722125345 81 85 0.0 0.0 0.00 0.37 0.00 69 1011.9
20170722124921 81 85 0.0 0.0 0.00 0.37 0.00 69 1011.9
20170722123916 81 85 0.0 0.0 0.00 0.37 0.00 69 1012.0
20170722122358 82 85 0.0 0.0 0.00 0.37 0.00 69 1011.9
20170722121840 82 85 0.0 0.0 0.00 0.37 0.00 69 1011.9
20170722121417 82 85 0.0 0.0 0.00 0.37 0.00 69 1011.8
20170722120347 81 85 0.0 0.0 0.00 0.37 0.00 69 1011.7
20170722115837 81 85 0.0 0.0 0.00 0.37 0.00 68 1011.8
20170722115356 81 85 0.0 0.0 0.00 0.37 0.00 68 1011.7
20170722114917 82 85 0.0 0.0 0.00 0.37 0.00 68 1011.6
20170722113921 82 85 0.0 0.0 0.00 0.37 0.00 68 1011.6
20170722110905 82 85 0.0 0.0 0.00 0.37 0.00 67 1011.4
20170722110338 82 85 0.0 0.0 0.00 0.37 0.00 67 1011.4
20170722105911 82 85 0.0 0.0 0.00 0.37 0.00 67 1011.4
20170722105409 82 85 0.0 0.0 0.00 0.37 0.00 67 1011.4
20170722104859 81 86 0.0 0.0 0.00 0.37 0.00 67 1011.4
20170722104347 82 85 0.0 0.0 0.00 0.37 0.00 67 1011.4
20170722103849 82 85 0.0 0.0 0.00 0.37 0.00 67 1011.3
20170722103423 82 85 0.0 0.0 0.00 0.37 0.00 66 1011.3
20170722102901 82 85 0.0 0.0 0.00 0.37 0.00 66 1011.3
20170722102401 82 85 0.0 0.0 0.00 0.37 0.00 65 1011.3
20170722101922 82 85 0.0 0.0 0.00 0.37 0.00 65 1011.4
20170722101409 82 85 0.0 0.0 0.00 0.37 0.00 64 1011.4
20170722094907 83 86 0.0 0.0 0.00 0.37 0.00 61 1011.4
20170722093925 83 85 0.0 0.0 0.00 0.37 0.00 60 1011.4
20170722092924 83 85 0.0 0.0 0.00 0.37 0.00 60 1011.4
20170722091917 84 85 0.0 0.0 0.00 0.37 0.00 59 1011.4
20170722090414 84 85 0.0 0.0 0.00 0.37 0.00 59 1011.4
20170722085859 84 85 0.0 1.0 0.00 0.37 0.00 59 1011.4
20170722083922 84 222 0.0 1.0 0.00 0.37 0.00 60 1011.5
20170722083421 84 227 0.0 1.0 0.00 0.37 0.00 60 1011.5
20170722082842 84 224 0.0 1.0 0.00 0.37 0.00 61 1011.5
20170722082422 84 225 0.0 1.0 0.00 0.37 0.00 61 1011.5
20170722081919 84 224 0.0 0.0 0.00 0.37 0.00 61 1011.3
20170722075356 84 224 0.0 0.0 0.00 0.37 0.00 60 1011.0
20170722074840 84 224 0.0 0.0 0.00 0.37 0.00 59 1011.1
20170722074416 84 224 0.0 0.0 0.00 0.37 0.00 59 1011.1
20170722073914 84 225 0.0 1.0 0.00 0.37 0.00 59 1011.1
20170722073425 84 230 0.0 1.0 0.00 0.37 0.00 59 1011.1
20170722072922 84 228 0.0 0.0 0.00 0.37 0.00 58 1011.2
20170722071915 85 228 0.0 1.0 0.00 0.37 0.00 58 1011.3
20170722071426 85 228 0.0 1.0 0.00 0.37 0.00 59 1011.4
20170722070910 85 227 0.0 6.0 0.00 0.37 0.00 59 1011.2
20170722070404 85 157 1.0 6.0 0.00 0.37 0.00 61 1011.4
20170722065923 84 64 0.0 1.0 0.00 0.37 0.37 60 1011.3
20170722065417 84 64 0.0 0.0 0.00 0.37 0.37 60 1011.1